Regional Weather Roundup
Issued by NWS Charleston, SC

Current Version | Previous Version | Graphics & Text | Print | Product List | Glossary On
Versions: 1 2 3 4 5 6 7 8 9 10 11 12 13 14 15 16 17 18 19 20 21 22 23 24 25 26 27 28 29 30 31 32 33 34 35 36 37 38 39 40 41 42 43 44 45 46 47 48 49 50
000
ASUS42 KCHS 290510
RWRCHS
REGIONAL WEATHER ROUNDUP
NATIONAL WEATHER SERVICE CHARLESTON SC
100 AM EDT FRI AUG 29 2014

NOTE: "FAIR" INDICATES FEW OR NO CLOUDS BELOW 12,000 FEET WITH NO
SIGNIFICANT WEATHER AND/OR OBSTRUCTIONS TO VISIBILITY.

NOT ALL STATIONS ARE QUALITY CONTROLLED BY THE NATIONAL
WEATHER SERVICE. USE DATA WITH CAUTION...ESPECIALLY
DEWPOINT OBSERVATIONS.

SCZ027-030-031-034>040-042>050-290600-
...SOUTH CAROLINA...

CITY           SKY/WX    TMP DP  RH WIND       PRES   REMARKS
N CHARLESTON   CLEAR     73  69  87 S5        30.05R
WATERFRONT PRK   N/A     79 N/A N/A S5          N/A
FORT JOHNSON   NOT AVBL
MOUNT PLEASANT FAIR      70  68  94 S3        30.05R
JOHNS ISLAND   CLEAR     75  73  94 CALM      30.05R
PINOPOLIS        N/A     77  66  69 S3        29.96S
MONCKS CORNER    N/A     70  68  94 CALM      30.04R
SUMMERVILLE    NOT AVBL
BEAUFORT MCAS  CLEAR     73  68  84 CALM      30.05R
BEAUFORT ARPT  FAIR      75  72  88 S3        30.04S
HILTON HEAD IS CLEAR     77  73  88 CALM      30.06S
GEORGETOWN     NOT AVBL
WALTERBORO     CLEAR     70 N/A N/A CALM      30.05S
ORANGEBURG     CLEAR     70  63  78 SW3       30.05R
BARNWELL       FAIR      73  64  73 CALM      30.05R
AIKEN          FAIR      72  63  73 S6        30.08S
MANNING        FAIR      75  70  83 S3        30.04S
KINGSTREE      NOT AVBL
COLUMBIA       CLEAR     77  60  55 SW5       30.03R
SUMTER         CLEAR     74  65  75 S3        30.03R
FLORENCE       CLEAR     74  66  76 SW5       30.03S
MYRTLE BEACH   CLEAR     75  66  73 SW5       30.05R
N MYRTLE BEACH CLEAR     74  69  85 CALM      30.04R

$$

GAZ063-065-086>088-099>101-113>116-118-119-134-136>141-150-290600-
...GEORGIA...

CITY           SKY/WX    TMP DP  RH WIND       PRES   REMARKS
SAVANNAH ARPT  CLEAR     74  69  85 CALM      30.05S
HUNTER AAF     CLEAR     73  71  94 CALM      30.03S
FORT STEWART   PTCLDY    71  68  89 CALM      30.04S
STATESBORO     NOT AVBL
SYLVANIA       CLEAR     69  68  98 CALM      30.06S
CLAXTON        NOT AVBL
THOMSON        CLEAR     77  66  68 CALM      30.08R
AUGUSTA-BUSH   CLEAR     65  63  93 CALM      30.04R
AUGUSTA-DANIEL CLEAR     75  64  68 SE5       30.05R
SWAINSBORO     FAIR      77  70  78 S6        30.05S
VIDALIA          N/A     73  70  88 S3        30.05S
ALMA           CLOUDY    72  68  87 CALM      30.04F
WAYCROSS       CLEAR     77  72  82 E3        30.04S
JESUP            N/A     72  70  94 CALM      30.05S
BRUNSWICK      CLEAR     70  68  94 CALM      30.04F
SAINT SIMONS   PTCLDY    80  73  79 S3        30.03F

$$

SCZ027-028-034-036>038-045-046-048>050-GAZ119-141-290600-
...LAKE AND SUPPLEMENTAL COASTAL OBSERVATIONS...

STATION/POSITION TIME  TEMP    WIND        PRES    WAVE   SWELL
                       AIR SEA DIR/SP/G            HT/PER HT/PER/DIR
                 (UTC) (F)     (DEG/KT/KT) (MB)    (FT/S) (FT/S/D)
UPR LAKE MARION  NOT AVBL
WINYAH BAY       0400   76     260/  2     1017.0S
LAKE MURRAY      0400   80     200/  8/ 12 1016.3R
ACE BASIN NERRS  0400   73        CALM     1017.0S
FORT PULASKI     0500   80     130/  3/  5 1017.6R
SAPELO ISLAND    0400   76     140/  3     1017.0S

$$

ANZ835-935-AMZ111-154-330-350-352-354-374-450-454-472-290600-
...C-MAN AND BUOY OBSERVATIONS...

STATION/POSITION TIME  TEMP    WIND        PRES    WAVE   SWELL
                       AIR SEA DIR/SP/G            HT/PER HT/PER/DIR
                 (UTC) (F)     (DEG/KT/KT) (MB)    (FT/S) (FT/S/D)
FOLLY BEACH CMAN 0400   80     190/  9/ 10 1017.6S
BUOY 41004       0500   82 83  170/ 10/ 12 1017.1R   4/ 9   3/ 9
BUOY 41008       0500   82 84  170/  8/ 10 1017.2R   3/10   3/100/10
5E ST. MARYS GA  0500      84                N/A     3/ 9
FRYING PAN BUOY  NOT AVBL
BUOY 41025       0500   80     320/  2/  4 1017.2R   5/ 8   5/120/ 8
CAPE LOOKOUT NC  0400   80     240/  6/  7 1016.7R
BUOY 41002       0405   81 81  240/  4/  6 1018.8R   5/ 9   5/120/ 9
BUOY 41010       0500   83 84  120/  6/  8 1017.5F   4/ 8   3/ 50/ 8
BUOY 41012       NOT AVBL
ST AUGUSTINE FL  0500   81     140/ 12/ 14 1017.7F
CAPERS NEARSHORE 0400   80     200/ 10/ 12   N/A
FRIPP NEARSHORE  NOT AVBL


$$


USA.gov is the U.S. government's official web portal to all federal, state and local government web resources and services.